Location: Clermont
(50.2608°N, 4.3172°E)
Time: 15:38:25
(UTC+00:00)

GP-B - Pass Details

Date: 13 August 2020
Orbit: 632 x 635 km, 89.8° (Epoch: 18 September)

Event Time Altitude Azimuth Distance (km) Brightness Sun altitude
Rises 19:53:56 0° 7° (N) 2,946 6.9 -7.7°
Reaches altitude 10° 19:56:18 10° 16° (NNE) 2,032 6.0 -8.0°
Maximum altitude 20:00:28 37° 84° (E) 984 3.7 -8.6°
Drops below altitude 10° 20:04:36 10° 153° (SSE) 2,014 5.1 -9.1°
Enters shadow 20:04:55 - 154° (SSE) 2,135 5.3 -9.2°
